Time,TemperatureF,DewpointF,PressureIn,WindDirection,WindDirectionDegrees,WindSpeedMPH,WindSpeedGustMPH,Humidity,HourlyPrecipIn,Conditions,Clouds,dailyrainin,SoftwareType,DateUTC
2013-01-01 00:03:00,19.1,12.7,30.16,ENE,68,0.0,0.0,76,0.00,,,0.00,WUHU216HW,2013-01-01 07:03:00,
2013-01-01 00:08:00,19.1,12.7,30.16,ENE,68,0.0,0.0,76,0.00,,,0.00,WUHU216HW,2013-01-01 07:08:00,
2013-01-01 00:13:00,19.1,12.7,30.16,ENE,68,0.0,0.4,76,0.00,,,0.00,WUHU216HW,2013-01-01 07:13:00,
2013-01-01 00:18:00,19.1,12.7,30.16,ENE,68,0.4,0.4,76,0.00,,,0.00,WUHU216HW,2013-01-01 07:18:00,
2013-01-01 00:23:00,19.1,12.7,30.16,ENE,68,0.0,0.7,76,0.00,,,0.00,WUHU216HW,2013-01-01 07:23:00,
2013-01-01 00:28:00,19.1,12.7,30.16,ENE,68,0.0,0.7,76,0.00,,,0.00,WUHU216HW,2013-01-01 07:28:00,
2013-01-01 00:33:00,19.3,12.8,30.16,ENE,68,0.0,0.4,76,0.00,,,0.00,WUHU216HW,2013-01-01 07:33:00,
2013-01-01 00:38:00,19.3,12.8,30.16,ENE,68,0.0,0.4,76,0.00,,,0.00,WUHU216HW,2013-01-01 07:38:00,
2013-01-01 00:43:00,19.3,12.8,30.16,ENE,68,0.0,0.0,76,0.00,,,0.00,WUHU216HW,2013-01-01 07:43:00,
2013-01-01 00:48:00,19.4,13.3,30.16,ENE,68,0.0,0.0,77,0.00,,,0.00,WUHU216HW,2013-01-01 07:48:00,
2013-01-01 00:53:00,19.4,13.0,30.16,ENE,68,0.0,0.0,76,0.00,,,0.00,WUHU216HW,2013-01-01 07:53:00,
2013-01-01 00:58:00,19.3,13.2,30.16,ENE,68,0.0,0.0,77,0.00,,,0.00,WUHU216HW,2013-01-01 07:58:00,
2013-01-01 01:03:00,19.3,13.2,30.17,ENE,68,0.0,0.4,77,0.00,,,0.00,WUHU216HW,2013-01-01 08:03:00,
2013-01-01 01:08:00,19.3,13.2,30.16,ENE,68,0.0,0.4,77,0.00,,,0.00,WUHU216HW,2013-01-01 08:08:00,
2013-01-01 01:13:00,19.3,13.2,30.16,ENE,68,0.0,0.0,77,0.00,,,0.00,WUHU216HW,2013-01-01 08:13:00,
2013-01-01 01:18:00,19.3,13.2,30.17,ENE,68,0.0,0.0,77,0.00,,,0.00,WUHU216HW,2013-01-01 08:18:00,
2013-01-01 01:23:00,19.1,13.0,30.16,ENE,68,0.0,0.0,77,0.00,,,0.00,WUHU216HW,2013-01-01 08:23:00,
2013-01-01 01:28:00,19.3,13.2,30.16,ENE,68,0.0,0.0,77,0.00,,,0.00,WUHU216HW,2013-01-01 08:28:00,
2013-01-01 01:33:00,19.3,13.4,30.16,ENE,68,0.0,0.0,78,0.00,,,0.00,WUHU216HW,2013-01-01 08:33:00,
2013-01-01 01:38:00,19.3,13.2,30.16,ENE,68,0.4,0.7,77,0.00,,,0.00,WUHU216HW,2013-01-01 08:38:00,
2013-01-01 01:43:00,19.1,13.0,30.16,ENE,68,0.4,0.7,77,0.00,,,0.00,WUHU216HW,2013-01-01 08:43:00,
2013-01-01 01:48:00,19.1,13.2,30.16,ENE,68,0.0,0.4,78,0.00,,,0.00,WUHU216HW,2013-01-01 08:48:00,
2013-01-01 01:53:00,18.9,13.1,30.16,ENE,68,0.0,0.4,78,0.00,,,0.00,WUHU216HW,2013-01-01 08:53:00,
2013-01-01 01:58:00,18.7,12.9,30.17,ENE,68,0.0,0.0,78,0.00,,,0.00,WUHU216HW,2013-01-01 08:58:00,
2013-01-01 02:03:00,18.7,12.9,30.17,ENE,68,0.4,0.4,78,0.00,,,0.00,WUHU216HW,2013-01-01 09:03:00,
2013-01-01 02:08:00,18.9,13.1,30.17,ENE,68,1.1,1.1,78,0.00,,,0.00,WUHU216HW,2013-01-01 09:08:00,
2013-01-01 02:13:00,18.9,13.1,30.17,ENE,68,0.9,1.3,78,0.00,,,0.00,WUHU216HW,2013-01-01 09:13:00,
2013-01-01 02:18:00,19.1,13.2,30.18,ENE,68,0.0,1.3,78,0.00,,,0.00,WUHU216HW,2013-01-01 09:18:00,
2013-01-01 02:23:00,19.1,13.2,30.18,ENE,68,0.4,1.1,78,0.00,,,0.00,WUHU216HW,2013-01-01 09:23:00,
2013-01-01 02:28:00,18.9,13.1,30.18,ENE,68,0.4,1.1,78,0.00,,,0.00,WUHU216HW,2013-01-01 09:28:00,
2013-01-01 02:33:00,18.7,12.9,30.18,NE,45,0.7,1.1,78,0.00,,,0.00,WUHU216HW,2013-01-01 09:33:00,
2013-01-01 02:38:00,18.7,12.9,30.18,ENE,68,0.9,1.8,78,0.00,,,0.00,WUHU216HW,2013-01-01 09:38:00,
2013-01-01 02:43:00,18.7,12.9,30.18,ENE,68,0.0,1.8,78,0.00,,,0.00,WUHU216HW,2013-01-01 09:43:00,
2013-01-01 02:48:00,18.9,13.1,30.18,ENE,68,0.0,0.4,78,0.00,,,0.00,WUHU216HW,2013-01-01 09:48:00,
2013-01-01 02:53:00,19.1,13.2,30.18,ENE,68,0.4,0.4,78,0.00,,,0.00,WUHU216HW,2013-01-01 09:53:00,
2013-01-01 02:58:00,19.1,13.2,30.17,ENE,68,0.4,0.7,78,0.00,,,0.00,WUHU216HW,2013-01-01 09:58:00,
2013-01-01 03:03:00,19.1,13.2,30.17,ENE,68,0.0,0.7,78,0.00,,,0.00,WUHU216HW,2013-01-01 10:03:00,
2013-01-01 03:08:00,18.9,13.1,30.17,ENE,68,0.0,0.2,78,0.00,,,0.00,WUHU216HW,2013-01-01 10:08:00,
2013-01-01 03:13:00,18.5,12.7,30.18,NNW,338,0.9,0.9,78,0.00,,,0.00,WUHU216HW,2013-01-01 10:13:00,
2013-01-01 03:18:00,18.2,12.3,30.18,WNW,293,0.9,1.8,78,0.00,,,0.00,WUHU216HW,2013-01-01 10:18:00,
2013-01-01 03:23:00,17.6,11.9,30.18,NNW,338,0.2,1.8,78,0.00,,,0.00,WUHU216HW,2013-01-01 10:23:00,
2013-01-01 03:28:00,17.6,11.9,30.18,NNW,338,0.7,0.7,78,0.00,,,0.00,WUHU216HW,2013-01-01 10:28:00,
2013-01-01 03:33:00,17.6,12.2,30.18,ENE,68,0.7,0.9,79,0.00,,,0.00,WUHU216HW,2013-01-01 10:33:00,
2013-01-01 03:38:00,17.6,12.2,30.18,ENE,68,0.0,0.9,79,0.00,,,0.00,WUHU216HW,2013-01-01 10:38:00,
2013-01-01 03:43:00,17.6,12.2,30.18,ENE,68,0.0,0.4,79,0.00,,,0.00,WUHU216HW,2013-01-01 10:43:00,
2013-01-01 03:48:00,17.6,12.2,30.17,ENE,68,1.1,1.1,79,0.00,,,0.00,WUHU216HW,2013-01-01 10:48:00,
2013-01-01 03:53:00,17.6,12.2,30.17,ENE,68,0.0,1.1,79,0.00,,,0.00,WUHU216HW,2013-01-01 10:53:00,
2013-01-01 03:58:00,17.6,12.2,30.18,ENE,68,0.0,0.9,79,0.00,,,0.00,WUHU216HW,2013-01-01 10:58:00,
2013-01-01 04:03:00,17.8,12.3,30.18,ENE,68,0.0,0.0,79,0.00,,,0.00,WUHU216HW,2013-01-01 11:03:00,
2013-01-01 04:08:00,17.8,12.3,30.18,ENE,68,0.0,0.0,79,0.00,,,0.00,WUHU216HW,2013-01-01 11:08:00,
2013-01-01 04:13:00,17.8,12.3,30.17,ENE,68,0.0,0.0,79,0.00,,,0.00,WUHU216HW,2013-01-01 11:13:00,
2013-01-01 04:18:00,17.8,12.3,30.17,ENE,68,0.0,0.2,79,0.00,,,0.00,WUHU216HW,2013-01-01 11:18:00,
2013-01-01 04:23:00,17.8,12.3,30.18,ENE,68,0.0,0.2,79,0.00,,,0.00,WUHU216HW,2013-01-01 11:23:00,
2013-01-01 04:28:00,18.0,12.5,30.17,ENE,68,0.0,0.0,79,0.00,,,0.00,WUHU216HW,2013-01-01 11:28:00,
2013-01-01 04:33:00,18.0,12.8,30.17,ENE,68,0.0,0.0,80,0.00,,,0.00,WUHU216HW,2013-01-01 11:33:00,
2013-01-01 04:38:00,17.8,12.6,30.17,North,0,0.0,0.0,80,0.00,,,0.00,WUHU216HW,2013-01-01 11:38:00,
2013-01-01 04:43:00,17.6,12.2,30.18,North,0,0.0,0.0,79,0.00,,,0.00,WUHU216HW,2013-01-01 11:43:00,
2013-01-01 04:48:00,17.6,12.2,30.17,North,0,0.0,0.4,79,0.00,,,0.00,WUHU216HW,2013-01-01 11:48:00,
2013-01-01 04:53:00,17.6,12.2,30.17,North,0,0.0,0.4,79,0.00,,,0.00,WUHU216HW,2013-01-01 11:53:00,
2013-01-01 04:58:00,17.5,12.2,30.17,North,0,0.2,0.2,80,0.00,,,0.00,WUHU216HW,2013-01-01 11:58:00,
2013-01-01 05:03:00,17.3,12.1,30.17,North,0,0.0,0.4,80,0.00,,,0.00,WUHU216HW,2013-01-01 12:03:00,
2013-01-01 05:08:00,17.3,12.1,30.17,North,0,0.0,0.4,80,0.00,,,0.00,WUHU216HW,2013-01-01 12:08:00,
2013-01-01 05:13:00,17.1,12.0,30.17,North,0,0.0,0.4,80,0.00,,,0.00,WUHU216HW,2013-01-01 12:13:00,
2013-01-01 05:18:00,16.9,11.8,30.17,North,0,1.1,1.1,80,0.00,,,0.00,WUHU216HW,2013-01-01 12:18:00,
2013-01-01 05:23:00,16.7,11.4,30.17,NNE,23,0.2,1.8,79,0.00,,,0.00,WUHU216HW,2013-01-01 12:23:00,
2013-01-01 05:28:00,16.6,11.2,30.17,NE,45,0.4,1.8,79,0.00,,,0.00,WUHU216HW,2013-01-01 12:28:00,
2013-01-01 05:34:00,16.4,11.0,30.17,NE,45,0.0,0.7,79,0.00,,,0.00,WUHU216HW,2013-01-01 12:34:00,
2013-01-01 05:39:00,16.6,11.2,30.17,NE,45,0.0,0.0,79,0.00,,,0.00,WUHU216HW,2013-01-01 12:39:00,
2013-01-01 05:44:00,16.6,11.2,30.17,NNW,338,1.6,1.6,79,0.00,,,0.00,WUHU216HW,2013-01-01 12:44:00,
2013-01-01 05:49:00,16.2,10.8,30.17,NNE,23,0.9,2.5,79,0.00,,,0.00,WUHU216HW,2013-01-01 12:49:00,
2013-01-01 05:54:00,15.7,10.4,30.17,NE,45,0.4,2.5,79,0.00,,,0.00,WUHU216HW,2013-01-01 12:54:00,
2013-01-01 05:59:00,15.5,10.2,30.17,NE,45,0.0,1.1,79,0.00,,,0.00,WUHU216HW,2013-01-01 12:59:00,
2013-01-01 06:04:00,14.8,9.1,30.17,NE,45,0.0,0.4,78,0.00,,,0.00,WUHU216HW,2013-01-01 13:04:00,
2013-01-01 06:09:00,14.2,8.7,30.17,NE,45,0.4,0.4,78,0.00,,,0.00,WUHU216HW,2013-01-01 13:09:00,
2013-01-01 06:14:00,13.9,8.6,30.16,ENE,68,1.8,1.8,79,0.00,,,0.00,WUHU216HW,2013-01-01 13:14:00,
2013-01-01 06:19:00,13.7,8.4,30.17,ENE,68,0.0,1.8,79,0.00,,,0.00,WUHU216HW,2013-01-01 13:19:00,
2013-01-01 06:24:00,13.3,8.0,30.18,NNE,23,2.0,2.0,79,0.00,,,0.00,WUHU216HW,2013-01-01 13:24:00,
2013-01-01 06:29:00,13.1,7.8,30.18,NE,45,2.2,2.9,79,0.00,,,0.00,WUHU216HW,2013-01-01 13:29:00,
2013-01-01 06:34:00,13.0,7.9,30.18,ENE,68,0.4,2.9,80,0.00,,,0.00,WUHU216HW,2013-01-01 13:34:00,
2013-01-01 06:39:00,13.0,7.9,30.18,ENE,68,2.5,2.5,80,0.00,,,0.00,WUHU216HW,2013-01-01 13:39:00,
2013-01-01 06:44:00,12.8,7.7,30.17,ESE,113,1.6,3.1,80,0.00,,,0.00,WUHU216HW,2013-01-01 13:44:00,
2013-01-01 06:49:00,12.6,7.6,30.17,East,90,1.1,3.1,80,0.00,,,0.00,WUHU216HW,2013-01-01 13:49:00,
2013-01-01 06:54:00,12.6,7.8,30.17,SE,135,0.7,1.1,81,0.00,,,0.00,WUHU216HW,2013-01-01 13:54:00,
2013-01-01 06:59:00,12.8,8.0,30.17,ESE,113,0.4,1.1,81,0.00,,,0.00,WUHU216HW,2013-01-01 13:59:00,
2013-01-01 07:04:00,12.8,8.0,30.16,ESE,113,0.0,1.1,81,0.00,,,0.00,WUHU216HW,2013-01-01 14:04:00,
2013-01-01 07:09:00,12.4,7.4,30.16,East,90,1.6,1.6,80,0.00,,,0.00,WUHU216HW,2013-01-01 14:09:00,
2013-01-01 07:14:00,11.9,6.8,30.17,East,90,1.1,1.6,80,0.00,,,0.00,WUHU216HW,2013-01-01 14:14:00,
2013-01-01 07:19:00,11.5,6.5,30.17,East,90,0.4,1.1,80,0.00,,,0.00,WUHU216HW,2013-01-01 14:19:00,
2013-01-01 07:24:00,11.3,6.3,30.17,ENE,68,0.4,0.7,80,0.00,,,0.00,WUHU216HW,2013-01-01 14:24:00,
2013-01-01 07:29:00,11.0,5.9,30.17,North,0,0.0,0.4,80,0.00,,,0.00,WUHU216HW,2013-01-01 14:29:00,
2013-01-01 07:34:00,10.6,5.6,30.18,North,0,0.4,0.4,80,0.00,,,0.00,WUHU216HW,2013-01-01 14:34:00,
2013-01-01 07:39:00,10.4,5.4,30.18,NE,45,0.9,1.1,80,0.00,,,0.00,WUHU216HW,2013-01-01 14:39:00,
2013-01-01 07:44:00,10.1,5.0,30.18,NE,45,2.2,2.5,80,0.00,,,0.00,WUHU216HW,2013-01-01 14:44:00,
2013-01-01 07:49:00,10.3,5.2,30.18,NE,45,2.7,4.0,80,0.00,,,0.00,WUHU216HW,2013-01-01 14:49:00,
2013-01-01 07:55:00,10.4,5.7,30.19,NE,45,0.4,4.0,81,0.00,,,0.00,WUHU216HW,2013-01-01 14:55:00,
2013-01-01 08:00:00,11.2,6.7,30.19,East,90,1.3,2.5,82,0.00,,,0.00,WUHU216HW,2013-01-01 15:00:00,
2013-01-01 08:05:00,11.7,7.2,30.19,SSE,158,1.1,2.5,82,0.00,,,0.00,WUHU216HW,2013-01-01 15:05:00,
2013-01-01 08:10:00,12.1,7.6,30.19,SE,135,0.0,2.5,82,0.00,,,0.00,WUHU216HW,2013-01-01 15:10:00,
2013-01-01 08:15:00,12.1,7.6,30.18,SE,135,0.9,2.7,82,0.00,,,0.00,WUHU216HW,2013-01-01 15:15:00,
2013-01-01 08:20:00,11.9,7.4,30.18,WSW,248,0.0,2.7,82,0.00,,,0.00,WUHU216HW,2013-01-01 15:20:00,
2013-01-01 08:25:00,11.2,6.7,30.18,NW,315,0.2,0.9,82,0.00,,,0.00,WUHU216HW,2013-01-01 15:25:00,
2013-01-01 08:30:00,10.4,5.7,30.19,NNW,338,0.4,0.9,81,0.00,,,0.00,WUHU216HW,2013-01-01 15:30:00,
2013-01-01 08:35:00,9.7,5.3,30.19,NNE,23,1.1,1.8,82,0.00,,,0.00,WUHU216HW,2013-01-01 15:35:00,
2013-01-01 08:40:00,9.5,5.1,30.19,East,90,2.5,2.5,82,0.00,,,0.00,WUHU216HW,2013-01-01 15:40:00,
2013-01-01 08:45:00,9.7,5.3,30.19,NE,45,1.3,2.5,82,0.00,,,0.00,WUHU216HW,2013-01-01 15:45:00,
2013-01-01 08:50:00,9.7,5.3,30.19,NE,45,2.5,3.1,82,0.00,,,0.00,WUHU216HW,2013-01-01 15:50:00,
2013-01-01 08:55:00,9.9,5.7,30.19,NE,45,1.3,3.1,83,0.00,,,0.00,WUHU216HW,2013-01-01 15:55:00,
2013-01-01 09:00:00,10.4,6.2,30.19,NNE,23,0.0,1.8,83,0.00,,,0.00,WUHU216HW,2013-01-01 16:00:00,
2013-01-01 09:05:00,10.8,6.6,30.19,North,0,0.0,1.1,83,0.00,,,0.00,WUHU216HW,2013-01-01 16:05:00,
2013-01-01 09:10:00,11.5,7.3,30.19,SE,135,0.4,1.1,83,0.00,,,0.00,WUHU216HW,2013-01-01 16:10:00,
2013-01-01 09:15:00,11.9,7.7,30.20,SE,135,0.0,1.1,83,0.00,,,0.00,WUHU216HW,2013-01-01 16:15:00,
2013-01-01 09:20:00,11.9,7.7,30.20,NW,315,0.4,1.8,83,0.00,,,0.00,WUHU216HW,2013-01-01 16:20:00,
2013-01-01 09:25:00,12.1,7.6,30.20,NW,315,0.7,1.8,82,0.00,,,0.00,WUHU216HW,2013-01-01 16:25:00,
2013-01-01 09:30:00,12.6,8.4,30.21,WNW,293,0.0,0.7,83,0.00,,,0.00,WUHU216HW,2013-01-01 16:30:00,
2013-01-01 09:35:00,13.1,8.9,30.21,WSW,248,0.0,1.1,83,0.00,,,0.00,WUHU216HW,2013-01-01 16:35:00,
2013-01-01 09:40:00,13.3,9.1,30.21,SE,135,0.0,1.8,83,0.00,,,0.00,WUHU216HW,2013-01-01 16:40:00,
2013-01-01 09:45:00,13.0,8.2,30.21,ESE,113,0.4,1.8,81,0.00,,,0.00,WUHU216HW,2013-01-01 16:45:00,
2013-01-01 09:50:00,13.0,8.2,30.21,East,90,0.0,1.1,81,0.00,,,0.00,WUHU216HW,2013-01-01 16:50:00,
2013-01-01 09:55:00,13.3,8.8,30.21,East,90,0.0,0.7,82,0.00,,,0.00,WUHU216HW,2013-01-01 16:55:00,
2013-01-01 10:00:00,13.7,9.2,30.21,NW,315,1.1,2.2,82,0.00,,,0.00,WUHU216HW,2013-01-01 17:00:00,
2013-01-01 10:05:00,13.7,9.2,30.21,NW,315,0.0,2.2,82,0.00,,,0.00,WUHU216HW,2013-01-01 17:05:00,
2013-01-01 10:10:00,13.7,9.2,30.21,WNW,293,0.0,2.0,82,0.00,,,0.00,WUHU216HW,2013-01-01 17:10:00,
2013-01-01 10:15:00,14.0,9.5,30.20,WNW,293,0.0,1.1,82,0.00,,,0.00,WUHU216HW,2013-01-01 17:15:00,
2013-01-01 10:20:00,14.4,9.9,30.20,WNW,293,0.0,0.0,82,0.00,,,0.00,WUHU216HW,2013-01-01 17:20:00,
2013-01-01 10:25:00,14.8,10.3,30.20,WNW,293,0.0,0.0,82,0.00,,,0.00,WUHU216HW,2013-01-01 17:25:00,
2013-01-01 10:30:00,15.1,10.4,30.20,SSW,203,0.9,1.1,81,0.00,,,0.00,WUHU216HW,2013-01-01 17:30:00,
2013-01-01 10:35:00,15.3,10.5,30.21,SSW,203,0.0,1.1,81,0.00,,,0.00,WUHU216HW,2013-01-01 17:35:00,
2013-01-01 10:40:00,15.5,10.7,30.21,SSW,203,0.0,0.7,81,0.00,,,0.00,WUHU216HW,2013-01-01 17:40:00,
2013-01-01 10:45:00,15.8,11.1,30.21,South,180,0.0,0.7,81,0.00,,,0.00,WUHU216HW,2013-01-01 17:45:00,
2013-01-01 10:50:00,16.7,11.9,30.20,ESE,113,0.4,1.8,81,0.00,,,0.00,WUHU216HW,2013-01-01 17:50:00,
2013-01-01 10:55:00,17.6,12.7,30.21,SSW,203,0.4,1.8,81,0.00,,,0.00,WUHU216HW,2013-01-01 17:55:00,
2013-01-01 11:00:00,18.4,13.4,30.21,North,0,1.1,1.1,81,0.00,,,0.00,WUHU216HW,2013-01-01 18:00:00,
2013-01-01 11:05:00,18.9,13.1,30.22,NNW,338,3.4,3.4,78,0.00,,,0.00,WUHU216HW,2013-01-01 18:05:00,
2013-01-01 11:10:00,19.3,12.5,30.22,NNW,338,1.8,3.4,75,0.00,,,0.00,WUHU216HW,2013-01-01 18:10:00,
2013-01-01 11:15:00,19.4,12.7,30.21,NNW,338,1.8,2.9,75,0.00,,,0.00,WUHU216HW,2013-01-01 18:15:00,
2013-01-01 11:20:00,19.8,12.8,30.22,NNW,338,1.8,2.7,74,0.00,,,0.00,WUHU216HW,2013-01-01 18:20:00,
2013-01-01 11:25:00,20.0,12.6,30.22,North,0,2.2,2.7,73,0.00,,,0.00,WUHU216HW,2013-01-01 18:25:00,
2013-01-01 11:30:00,20.5,13.1,30.22,North,0,1.8,2.2,73,0.00,,,0.00,WUHU216HW,2013-01-01 18:30:00,
2013-01-01 11:35:00,20.9,12.9,30.22,North,0,2.7,2.7,71,0.00,,,0.00,WUHU216HW,2013-01-01 18:35:00,
2013-01-01 11:40:00,21.4,13.4,30.22,NNE,23,2.0,2.7,71,0.00,,,0.00,WUHU216HW,2013-01-01 18:40:00,
2013-01-01 11:45:00,22.0,13.7,30.22,NNE,23,1.8,2.9,70,0.00,,,0.00,WUHU216HW,2013-01-01 18:45:00,
2013-01-01 11:50:00,22.5,13.9,30.22,NNW,338,1.3,2.9,69,0.00,,,0.00,WUHU216HW,2013-01-01 18:50:00,
2013-01-01 11:55:00,23.4,14.4,30.23,North,0,1.1,3.4,68,0.00,,,0.00,WUHU216HW,2013-01-01 18:55:00,
2013-01-01 12:00:00,24.7,15.8,30.22,North,0,0.0,3.4,69,0.00,,,0.00,WUHU216HW,2013-01-01 19:00:00,
2013-01-01 12:05:00,25.6,16.0,30.22,North,0,0.4,1.3,67,0.00,,,0.00,WUHU216HW,2013-01-01 19:05:00,
2013-01-01 12:10:00,26.1,16.2,30.22,WNW,293,3.8,3.8,66,0.00,,,0.00,WUHU216HW,2013-01-01 19:10:00,
2013-01-01 12:15:00,25.4,15.6,30.22,WNW,293,5.4,5.4,66,0.00,,,0.00,WUHU216HW,2013-01-01 19:15:00,
2013-01-01 12:20:00,24.7,15.2,30.22,WNW,293,4.0,5.4,67,0.00,,,0.00,WUHU216HW,2013-01-01 19:20:00,
2013-01-01 12:25:00,24.5,14.7,30.22,NW,315,3.4,4.0,66,0.00,,,0.00,WUHU216HW,2013-01-01 19:25:00,
2013-01-01 12:30:00,24.5,15.4,30.22,WNW,293,3.6,4.3,68,0.00,,,0.00,WUHU216HW,2013-01-01 19:30:00,
2013-01-01 12:35:00,24.5,15.4,30.22,NW,315,2.0,4.3,68,0.00,,,0.00,WUHU216HW,2013-01-01 19:35:00,
2013-01-01 12:40:00,24.7,15.8,30.22,NW,315,1.8,3.6,69,0.00,,,0.00,WUHU216HW,2013-01-01 19:40:00,
2013-01-01 12:45:00,24.7,15.6,30.22,West,270,2.9,2.9,68,0.00,,,0.00,WUHU216HW,2013-01-01 19:45:00,
2013-01-01 12:50:00,24.1,15.4,30.22,West,270,3.6,3.6,69,0.00,,,0.00,WUHU216HW,2013-01-01 19:50:00,
2013-01-01 12:55:00,23.8,14.3,30.22,WNW,293,2.5,3.8,67,0.00,,,0.00,WUHU216HW,2013-01-01 19:55:00,
2013-01-01 13:00:00,23.6,14.6,30.22,NW,315,2.9,3.8,68,0.00,,,0.00,WUHU216HW,2013-01-01 20:00:00,
2013-01-01 13:05:00,23.8,15.0,30.22,NW,315,0.9,2.9,69,0.00,,,0.00,WUHU216HW,2013-01-01 20:05:00,
2013-01-01 13:10:00,23.9,15.2,30.22,NW,315,1.3,1.3,69,0.00,,,0.00,WUHU216HW,2013-01-01 20:10:00,
2013-01-01 13:15:00,23.9,15.2,30.22,NW,315,0.0,1.3,69,0.00,,,0.00,WUHU216HW,2013-01-01 20:15:00,
2013-01-01 13:20:00,24.1,15.4,30.22,NW,315,0.0,1.3,69,0.00,,,0.00,WUHU216HW,2013-01-01 20:20:00,
2013-01-01 13:25:00,23.9,14.5,30.22,North,0,1.3,1.3,67,0.00,,,0.00,WUHU216HW,2013-01-01 20:25:00,
2013-01-01 13:30:00,23.9,14.5,30.22,North,0,0.4,1.3,67,0.00,,,0.00,WUHU216HW,2013-01-01 20:30:00,
2013-01-01 13:35:00,24.1,14.7,30.22,North,0,1.3,1.8,67,0.00,,,0.00,WUHU216HW,2013-01-01 20:35:00,
2013-01-01 13:40:00,24.3,14.9,30.22,North,0,0.0,1.8,67,0.00,,,0.00,WUHU216HW,2013-01-01 20:40:00,
2013-01-01 13:45:00,25.0,15.8,30.22,NNW,338,0.0,0.9,68,0.00,,,0.00,WUHU216HW,2013-01-01 20:45:00,
2013-01-01 13:50:00,25.9,16.0,30.22,West,270,1.8,1.8,66,0.00,,,0.00,WUHU216HW,2013-01-01 20:50:00,
2013-01-01 13:55:00,26.5,16.2,30.22,WNW,293,0.7,1.8,65,0.00,,,0.00,WUHU216HW,2013-01-01 20:55:00,
2013-01-01 14:00:00,27.4,16.7,30.22,West,270,1.8,1.8,64,0.00,,,0.00,WUHU216HW,2013-01-01 21:00:00,
2013-01-01 14:05:00,27.9,16.9,30.22,West,270,1.3,1.8,63,0.00,,,0.00,WUHU216HW,2013-01-01 21:05:00,
2013-01-01 14:10:00,28.1,16.7,30.22,West,270,0.9,2.7,62,0.00,,,0.00,WUHU216HW,2013-01-01 21:10:00,
2013-01-01 14:15:00,28.3,16.9,30.22,West,270,0.0,2.7,62,0.00,,,0.00,WUHU216HW,2013-01-01 21:15:00,
2013-01-01 14:20:00,28.3,16.9,30.22,WNW,293,1.3,1.3,62,0.00,,,0.00,WUHU216HW,2013-01-01 21:20:00,
2013-01-01 14:25:00,28.1,16.7,30.22,WNW,293,0.4,1.3,62,0.00,,,0.00,WUHU216HW,2013-01-01 21:25:00,
2013-01-01 14:30:00,28.1,16.7,30.22,NW,315,1.6,1.6,62,0.00,,,0.00,WUHU216HW,2013-01-01 21:30:00,
2013-01-01 14:35:00,28.1,16.7,30.23,NW,315,2.2,2.2,62,0.00,,,0.00,WUHU216HW,2013-01-01 21:35:00,
2013-01-01 14:40:00,27.9,16.6,30.23,WNW,293,0.7,2.2,62,0.00,,,0.00,WUHU216HW,2013-01-01 21:40:00,
2013-01-01 14:45:00,27.9,16.9,30.22,WNW,293,0.9,2.0,63,0.00,,,0.00,WUHU216HW,2013-01-01 21:45:00,
2013-01-01 14:50:00,28.3,17.6,30.22,WNW,293,0.0,0.9,64,0.00,,,0.00,WUHU216HW,2013-01-01 21:50:00,
2013-01-01 14:55:00,28.1,17.1,30.23,WNW,293,0.0,0.7,63,0.00,,,0.00,WUHU216HW,2013-01-01 21:55:00,
2013-01-01 15:00:00,28.1,17.5,30.23,WNW,293,0.0,0.0,64,0.00,,,0.00,WUHU216HW,2013-01-01 22:00:00,
2013-01-01 15:05:00,28.1,17.5,30.23,NW,315,0.7,0.7,64,0.00,,,0.00,WUHU216HW,2013-01-01 22:05:00,
2013-01-01 15:10:00,27.9,16.6,30.24,NNW,338,1.3,1.3,62,0.00,,,0.00,WUHU216HW,2013-01-01 22:10:00,
2013-01-01 15:15:00,27.5,16.2,30.24,North,0,0.9,1.3,62,0.00,,,0.00,WUHU216HW,2013-01-01 22:15:00,
2013-01-01 15:20:00,27.4,16.0,30.23,North,0,1.1,1.3,62,0.00,,,0.00,WUHU216HW,2013-01-01 22:20:00,
2013-01-01 15:25:00,27.2,16.2,30.23,NNW,338,0.9,1.3,63,0.00,,,0.00,WUHU216HW,2013-01-01 22:25:00,
2013-01-01 15:30:00,27.2,16.2,30.23,NNW,338,1.1,1.1,63,0.00,,,0.00,WUHU216HW,2013-01-01 22:30:00,
2013-01-01 15:35:00,27.0,16.4,30.24,NW,315,1.1,1.1,64,0.00,,,0.00,WUHU216HW,2013-01-01 22:35:00,
2013-01-01 15:40:00,26.8,16.2,30.24,NW,315,0.2,1.1,64,0.00,,,0.00,WUHU216HW,2013-01-01 22:40:00,
2013-01-01 15:45:00,26.8,16.2,30.24,NW,315,0.0,0.7,64,0.00,,,0.00,WUHU216HW,2013-01-01 22:45:00,
2013-01-01 15:50:00,26.6,16.4,30.24,WSW,248,0.4,0.4,65,0.00,,,0.00,WUHU216HW,2013-01-01 22:50:00,
2013-01-01 15:55:00,26.3,16.0,30.24,WSW,248,0.0,0.4,65,0.00,,,0.00,WUHU216HW,2013-01-01 22:55:00,
2013-01-01 16:00:00,25.7,15.6,30.24,WSW,248,0.0,0.4,65,0.00,,,0.00,WUHU216HW,2013-01-01 23:00:00,
2013-01-01 16:05:00,25.2,15.0,30.24,WSW,248,0.0,0.0,65,0.00,,,0.00,WUHU216HW,2013-01-01 23:05:00,
2013-01-01 16:10:00,24.8,14.7,30.24,NE,45,0.4,0.9,65,0.00,,,0.00,WUHU216HW,2013-01-01 23:10:00,
2013-01-01 16:15:00,23.9,14.1,30.24,NE,45,0.9,0.9,66,0.00,,,0.00,WUHU216HW,2013-01-01 23:15:00,
2013-01-01 16:20:00,23.2,13.5,30.24,NE,45,2.7,2.7,66,0.00,,,0.00,WUHU216HW,2013-01-01 23:20:00,
2013-01-01 16:25:00,22.3,12.6,30.25,NE,45,2.5,2.7,66,0.00,,,0.00,WUHU216HW,2013-01-01 23:25:00,
2013-01-01 16:30:00,21.4,11.8,30.25,NE,45,3.4,3.4,66,0.00,,,0.00,WUHU216HW,2013-01-01 23:30:00,
2013-01-01 16:35:00,20.9,11.6,30.25,NE,45,3.6,3.6,67,0.00,,,0.00,WUHU216HW,2013-01-01 23:35:00,
2013-01-01 16:40:00,20.3,11.1,30.25,NE,45,3.8,4.3,67,0.00,,,0.00,WUHU216HW,2013-01-01 23:40:00,
2013-01-01 16:45:00,19.8,10.8,30.26,NE,45,4.5,4.5,68,0.00,,,0.00,WUHU216HW,2013-01-01 23:45:00,
2013-01-01 16:50:00,19.3,10.6,30.26,NE,45,5.4,5.4,69,0.00,,,0.00,WUHU216HW,2013-01-01 23:50:00,
2013-01-01 16:55:00,18.7,10.2,30.26,NNE,23,4.0,5.4,69,0.00,,,0.00,WUHU216HW,2013-01-01 23:55:00,
2013-01-01 17:00:00,18.4,10.2,30.25,NE,45,4.3,5.4,70,0.00,,,0.00,WUHU216HW,2013-01-02 00:00:00,
2013-01-01 17:05:00,18.4,10.4,30.26,NE,45,4.7,4.7,71,0.00,,,0.00,WUHU216HW,2013-01-02 00:05:00,
2013-01-01 17:10:00,18.4,10.4,30.26,NE,45,4.0,5.4,71,0.00,,,0.00,WUHU216HW,2013-01-02 00:10:00,
2013-01-01 17:15:00,18.4,10.4,30.26,NE,45,2.9,5.4,71,0.00,,,0.00,WUHU216HW,2013-01-02 00:15:00,
2013-01-01 17:20:00,18.4,10.4,30.26,ENE,68,2.5,4.7,71,0.00,,,0.00,WUHU216HW,2013-01-02 00:20:00,
2013-01-01 17:25:00,18.4,10.8,30.27,SE,135,0.7,4.0,72,0.00,,,0.00,WUHU216HW,2013-01-02 00:25:00,
2013-01-01 17:30:00,18.0,10.2,30.27,ENE,68,0.9,4.0,71,0.00,,,0.00,WUHU216HW,2013-01-02 00:30:00,
2013-01-01 17:35:00,17.3,9.5,30.27,East,90,0.4,2.5,71,0.00,,,0.00,WUHU216HW,2013-01-02 00:35:00,
2013-01-01 17:40:00,16.9,9.1,30.27,NE,45,0.9,1.6,71,0.00,,,0.00,WUHU216HW,2013-01-02 00:40:00,
2013-01-01 17:45:00,16.4,8.9,30.26,NE,45,2.2,4.0,72,0.00,,,0.00,WUHU216HW,2013-01-02 00:45:00,
2013-01-01 17:50:00,16.0,8.6,30.27,ENE,68,1.1,4.0,72,0.00,,,0.00,WUHU216HW,2013-01-02 00:50:00,
2013-01-01 17:55:00,16.0,8.8,30.26,ENE,68,2.5,2.5,73,0.00,,,0.00,WUHU216HW,2013-01-02 00:55:00,
2013-01-01 18:00:00,15.8,9.0,30.27,ESE,113,2.5,3.4,74,0.00,,,0.00,WUHU216HW,2013-01-02 01:00:00,
2013-01-01 18:05:00,15.8,9.0,30.27,ESE,113,1.1,3.4,74,0.00,,,0.00,WUHU216HW,2013-01-02 01:05:00,
2013-01-01 18:10:00,15.7,8.8,30.26,ENE,68,2.5,3.4,74,0.00,,,0.00,WUHU216HW,2013-01-02 01:10:00,
2013-01-01 18:15:00,15.5,8.7,30.27,ENE,68,2.7,3.6,74,0.00,,,0.00,WUHU216HW,2013-01-02 01:15:00,
2013-01-01 18:20:00,15.1,8.6,30.27,NE,45,0.0,3.6,75,0.00,,,0.00,WUHU216HW,2013-01-02 01:20:00,
2013-01-01 18:25:00,15.1,8.6,30.28,WNW,293,3.4,3.4,75,0.00,,,0.00,WUHU216HW,2013-01-02 01:25:00,
2013-01-01 18:30:00,14.9,8.4,30.28,SE,135,2.9,3.4,75,0.00,,,0.00,WUHU216HW,2013-01-02 01:30:00,
2013-01-01 18:35:00,14.6,7.7,30.28,ESE,113,1.1,2.9,74,0.00,,,0.00,WUHU216HW,2013-01-02 01:35:00,
2013-01-01 18:40:00,14.0,7.6,30.28,East,90,1.8,2.5,75,0.00,,,0.00,WUHU216HW,2013-01-02 01:40:00,
2013-01-01 18:45:00,14.0,7.8,30.27,East,90,2.2,2.7,76,0.00,,,0.00,WUHU216HW,2013-01-02 01:45:00,
2013-01-01 18:50:00,14.0,7.8,30.27,East,90,2.5,3.4,76,0.00,,,0.00,WUHU216HW,2013-01-02 01:50:00,
2013-01-01 18:55:00,14.2,8.0,30.27,East,90,2.5,3.6,76,0.00,,,0.00,WUHU216HW,2013-01-02 01:55:00,
2013-01-01 19:00:00,14.4,8.2,30.27,NE,45,4.5,4.5,76,0.00,,,0.00,WUHU216HW,2013-01-02 02:00:00,
2013-01-01 19:05:00,14.4,8.5,30.27,NE,45,3.4,4.7,77,0.00,,,0.00,WUHU216HW,2013-01-02 02:05:00,
2013-01-01 19:10:00,14.4,8.2,30.27,ENE,68,1.1,4.7,76,0.00,,,0.00,WUHU216HW,2013-01-02 02:10:00,
2013-01-01 19:15:00,14.0,7.8,30.27,East,90,1.3,2.5,76,0.00,,,0.00,WUHU216HW,2013-01-02 02:15:00,
2013-01-01 19:20:00,13.9,7.7,30.27,NNE,23,1.3,1.8,76,0.00,,,0.00,WUHU216HW,2013-01-02 02:20:00,
2013-01-01 19:25:00,13.5,7.3,30.27,ENE,68,2.5,2.5,76,0.00,,,0.00,WUHU216HW,2013-01-02 02:25:00,
2013-01-01 19:30:00,13.3,7.1,30.28,North,0,0.4,3.4,76,0.00,,,0.00,WUHU216HW,2013-01-02 02:30:00,
2013-01-01 19:35:00,12.8,6.8,30.28,North,0,2.0,3.4,77,0.00,,,0.00,WUHU216HW,2013-01-02 02:35:00,
2013-01-01 19:40:00,12.4,6.9,30.28,ENE,68,0.7,2.0,78,0.00,,,0.00,WUHU216HW,2013-01-02 02:40:00,
2013-01-01 19:45:00,12.2,6.3,30.28,East,90,1.6,1.8,77,0.00,,,0.00,WUHU216HW,2013-01-02 02:45:00,
2013-01-01 19:50:00,11.9,5.9,30.28,East,90,2.5,2.5,77,0.00,,,0.00,WUHU216HW,2013-01-02 02:50:00,
2013-01-01 19:55:00,11.9,6.3,30.28,ENE,68,2.5,2.5,78,0.00,,,0.00,WUHU216HW,2013-01-02 02:55:00,
2013-01-01 20:00:00,11.9,6.3,30.28,ENE,68,2.5,2.5,78,0.00,,,0.00,WUHU216HW,2013-01-02 03:00:00,
2013-01-01 20:05:00,11.9,6.3,30.28,East,90,0.9,2.7,78,0.00,,,0.00,WUHU216HW,2013-01-02 03:05:00,
2013-01-01 20:10:00,11.9,6.6,30.29,SW,225,0.7,2.7,79,0.00,,,0.00,WUHU216HW,2013-01-02 03:10:00,
2013-01-01 20:15:00,11.3,5.4,30.29,East,90,1.8,2.5,77,0.00,,,0.00,WUHU216HW,2013-01-02 03:15:00,
2013-01-01 20:20:00,10.8,4.9,30.29,ENE,68,0.4,1.8,77,0.00,,,0.00,WUHU216HW,2013-01-02 03:20:00,
2013-01-01 20:25:00,10.3,4.4,30.29,ENE,68,0.0,1.8,77,0.00,,,0.00,WUHU216HW,2013-01-02 03:25:00,
2013-01-01 20:30:00,9.9,4.1,30.29,ENE,68,0.4,0.9,77,0.00,,,0.00,WUHU216HW,2013-01-02 03:30:00,
2013-01-01 20:35:00,9.5,3.7,30.29,ENE,68,1.1,1.1,77,0.00,,,0.00,WUHU216HW,2013-01-02 03:35:00,
2013-01-01 20:40:00,9.5,4.1,30.29,East,90,0.7,1.1,78,0.00,,,0.00,WUHU216HW,2013-01-02 03:40:00,
2013-01-01 20:45:00,9.5,4.1,30.29,East,90,0.7,0.7,78,0.00,,,0.00,WUHU216HW,2013-01-02 03:45:00,
2013-01-01 20:50:00,9.5,4.3,30.29,ENE,68,1.3,1.3,79,0.00,,,0.00,WUHU216HW,2013-01-02 03:50:00,
2013-01-01 20:55:00,9.5,4.3,30.29,ENE,68,0.2,1.3,79,0.00,,,0.00,WUHU216HW,2013-01-02 03:55:00,
2013-01-01 21:00:00,9.2,3.7,30.29,NNE,23,0.4,1.1,78,0.00,,,0.00,WUHU216HW,2013-01-02 04:00:00,
2013-01-01 21:05:00,9.0,3.5,30.30,ENE,68,0.9,1.1,78,0.00,,,0.00,WUHU216HW,2013-01-02 04:05:00,
2013-01-01 21:10:00,8.8,3.3,30.30,East,90,1.8,1.8,78,0.00,,,0.00,WUHU216HW,2013-01-02 04:10:00,
2013-01-01 21:15:00,8.8,3.3,30.30,ENE,68,0.4,1.8,78,0.00,,,0.00,WUHU216HW,2013-01-02 04:15:00,
2013-01-01 21:20:00,8.8,3.3,30.30,ENE,68,0.9,1.3,78,0.00,,,0.00,WUHU216HW,2013-01-02 04:20:00,
2013-01-01 21:25:00,8.8,3.7,30.30,ENE,68,0.4,1.3,79,0.00,,,0.00,WUHU216HW,2013-01-02 04:25:00,
2013-01-01 21:30:00,8.8,3.7,30.30,ENE,68,0.0,1.1,79,0.00,,,0.00,WUHU216HW,2013-01-02 04:30:00,
2013-01-01 21:35:00,8.8,3.3,30.30,SSW,203,0.0,0.4,78,0.00,,,0.00,WUHU216HW,2013-01-02 04:35:00,
2013-01-01 21:40:00,8.3,2.9,30.30,ESE,113,0.4,0.7,78,0.00,,,0.00,WUHU216HW,2013-01-02 04:40:00,
2013-01-01 21:45:00,7.9,2.5,30.30,ESE,113,0.2,0.7,78,0.00,,,0.00,WUHU216HW,2013-01-02 04:45:00,
2013-01-01 21:50:00,7.6,2.2,30.30,ESE,113,0.0,0.4,78,0.00,,,0.00,WUHU216HW,2013-01-02 04:50:00,
2013-01-01 21:55:00,7.6,2.2,30.30,ESE,113,0.0,0.2,78,0.00,,,0.00,WUHU216HW,2013-01-02 04:55:00,
2013-01-01 22:00:00,7.6,2.2,30.31,East,90,1.3,1.3,78,0.00,,,0.00,WUHU216HW,2013-01-02 05:00:00,
2013-01-01 22:02:00,7.6,2.4,30.31,East,90,1.1,1.3,79,0.00,,,0.00,WUHU216HW,2013-01-02 05:02:00,
2013-01-01 22:03:00,7.6,2.4,30.31,ENE,68,1.8,1.8,79,0.00,,,0.00,WUHU216HW,2013-01-02 05:03:00,
2013-01-01 22:08:00,7.4,2.3,30.31,ENE,68,1.1,1.8,79,0.00,,,0.00,WUHU216HW,2013-01-02 05:08:00,
2013-01-01 22:13:00,7.4,2.3,30.31,ENE,68,0.9,1.3,79,0.00,,,0.00,WUHU216HW,2013-01-02 05:13:00,
2013-01-01 22:18:00,7.4,2.3,30.31,ENE,68,1.8,1.8,79,0.00,,,0.00,WUHU216HW,2013-01-02 05:18:00,
2013-01-01 22:23:00,7.6,2.7,30.31,ENE,68,2.0,2.0,80,0.00,,,0.00,WUHU216HW,2013-01-02 05:23:00,
2013-01-01 22:28:00,7.6,2.7,30.31,East,90,1.1,2.0,80,0.00,,,0.00,WUHU216HW,2013-01-02 05:28:00,
2013-01-01 22:33:00,7.6,2.7,30.31,ENE,68,1.8,1.8,80,0.00,,,0.00,WUHU216HW,2013-01-02 05:33:00,
2013-01-01 22:38:00,7.6,2.7,30.31,NE,45,1.6,1.8,80,0.00,,,0.00,WUHU216HW,2013-01-02 05:38:00,
2013-01-01 22:43:00,7.4,2.5,30.32,NE,45,1.1,2.5,80,0.00,,,0.00,WUHU216HW,2013-01-02 05:43:00,
2013-01-01 22:48:00,7.0,2.2,30.32,ENE,68,0.2,2.5,80,0.00,,,0.00,WUHU216HW,2013-01-02 05:48:00,
2013-01-01 22:53:00,7.0,2.2,30.31,ENE,68,0.4,1.1,80,0.00,,,0.00,WUHU216HW,2013-01-02 05:53:00,
2013-01-01 22:58:00,7.2,2.3,30.32,ENE,68,0.4,1.1,80,0.00,,,0.00,WUHU216HW,2013-01-02 05:58:00,
2013-01-01 23:03:00,7.4,2.5,30.32,East,90,0.7,1.1,80,0.00,,,0.00,WUHU216HW,2013-01-02 06:03:00,
2013-01-01 23:08:00,7.4,2.5,30.32,East,90,0.9,0.9,80,0.00,,,0.00,WUHU216HW,2013-01-02 06:08:00,
2013-01-01 23:13:00,7.4,2.5,30.32,ENE,68,0.4,1.1,80,0.00,,,0.00,WUHU216HW,2013-01-02 06:13:00,
2013-01-01 23:18:00,7.2,2.3,30.32,ENE,68,0.0,1.1,80,0.00,,,0.00,WUHU216HW,2013-01-02 06:18:00,
2013-01-01 23:23:00,7.2,2.3,30.32,ENE,68,0.0,0.0,80,0.00,,,0.00,WUHU216HW,2013-01-02 06:23:00,
2013-01-01 23:28:00,7.2,2.3,30.32,ENE,68,0.0,0.2,80,0.00,,,0.00,WUHU216HW,2013-01-02 06:28:00,
2013-01-01 23:33:00,6.8,2.0,30.32,ENE,68,0.2,0.2,80,0.00,,,0.00,WUHU216HW,2013-01-02 06:33:00,
2013-01-01 23:38:00,6.3,1.4,30.32,ENE,68,0.0,0.4,80,0.00,,,0.00,WUHU216HW,2013-01-02 06:38:00,
2013-01-01 23:43:00,6.1,1.3,30.32,ENE,68,0.0,0.4,80,0.00,,,0.00,WUHU216HW,2013-01-02 06:43:00,
2013-01-01 23:48:00,5.6,0.7,30.32,NE,45,1.8,1.8,80,0.00,,,0.00,WUHU216HW,2013-01-02 06:48:00,
2013-01-01 23:53:00,5.4,0.5,30.32,NE,45,1.3,1.8,80,0.00,,,0.00,WUHU216HW,2013-01-02 06:53:00,
2013-01-01 23:58:00,5.4,0.5,30.32,NE,45,1.8,1.8,80,0.00,,,0.00,WUHU216HW,2013-01-02 06:58:00,